Theta_e
334 341 349 350 349 349 349 349 348 348 348 348 348 348 348 348 348 350 350 350 350 348 347 347 347 349 348 349 349 347 346 344 346 345 347 347 346 345 347 347 347 341 346
338 344 347 349 349 349 350 349 348 348 347 347 347 346 346 347 347 347 348 349 349 346 346 346 347 347 346 348 348 348 345 343 344 344 345 348 347 345 346 346 345 342 345
340 344 346 348 349 349 349 349 349 348 346 346 346 346 346 346 345 345 345 345 346 346 346 345 345 346 348 348 348 348 345 342 342 342 343 338 337 345 342 345 345 346 345
341 344 344 345 348 348 348 348 348 347 347 346 345 345 345 345 346 345 345 344 343 343 344 344 344 343 344 346 347 346 344 342 341 341 338 337 338 344 342 345 345 345 345
341 342 342 343 347 346 346 346 346 346 346 345 345 345 344 345 345 345 344 343 343 343 342 342 342 343 344 344 345 344 345 342 339 339 335 335 334 340 345 346 345 346 345
339 341 341 344 346 346 345 344 343 343 343 342 342 342 342 342 343 342 342 342 341 341 341 341 341 341 342 343 344 344 343 342 339 333 333 334 335 340 345 344 345 343 343
337 339 340 342 344 345 344 344 343 343 343 342 342 342 342 342 342 342 341 341 341 341 340 340 340 341 342 342 342 343 343 340 336 331 331 332 332 341 344 345 344 344 343
332 334 336 333 338 340 341 340 340 339 338 339 339 339 338 336 336 336 336 337 337 337 338 340 340 340 340 341 342 341 338 335 333 331 329 329 334 341 344 344 345 343 343
329 329 329 332 331 331 332 331 331 330 328 327 325 324 323 323 322 322 323 324 324 324 324 324 326 328 332 337 338 337 335 332 331 331 331 329 333 339 341 342 345 343 342
316 318 319 319 318 318 320 323 324 324 322 320 319 317 315 315 315 316 317 319 320 320 320 321 321 321 321 321 329 332 329 329 329 329 331 332 335 339 341 340 343 343 341
308 307 306 307 309 311 312 313 315 318 315 313 311 313 308 305 306 306 312 314 314 315 315 316 316 317 316 316 318 321 326 329 327 328 331 333 336 340 341 341 342 342 341
304 304 304 305 307 308 309 306 305 307 304 303 304 304 304 302 304 304 305 308 308 309 310 311 311 311 309 308 309 314 315 321 328 329 329 332 336 339 340 340 341 342 342
301 301 302 304 304 304 303 302 301 301 302 301 301 301 300 300 298 299 298 298 299 302 300 302 302 303 304 305 306 308 310 311 312 322 328 329 333 336 339 340 340 340 340
299 300 300 302 302 302 301 300 300 300 299 298 299 300 297 297 296 296 296 296 296 297 297 297 298 300 301 303 305 305 307 308 310 310 311 318 325 333 337 338 339 341 341
299 299 299 300 300 300 299 298 298 297 297 297 297 298 297 296 295 295 295 294 294 295 295 295 296 297 298 300 302 303 304 306 307 309 309 312 315 317 322 331 338 338 340
299 299 299 300 300 300 298 297 296 296 295 295 295 296 297 296 294 294 293 293 293 294 294 294 294 294 295 297 299 301 302 304 306 307 308 308 312 314 317 320 326 333 338
299 299 299 299 299 298 297 296 295 296 295 294 294 294 294 295 293 292 292 292 292 293 293 293 293 294 294 295 295 297 299 300 303 304 305 307 308 311 313 316 318 323 327
297 299 299 302 297 296 295 294 294 294 293 292 291 291 293 294 293 291 291 291 292 292 292 291 291 292 291 292 292 294 295 297 299 301 303 304 305 307 309 312 314 316 318
298 298 298 297 295 294 293 293 293 292 290 290 289 290 291 293 293 291 290 290 292 291 290 291 290 290 290 290 291 292 293 294 296 298 299 301 303 305 306 308 311 312 314
296 298 296 295 294 293 292 290 290 290 289 289 289 290 290 290 291 289 289 289 290 289 289 289 289 289 289 289 291 291 292 293 294 295 296 299 300 302 303 304 305 306 310
294 294 295 294 292 292 289 288 287 287 287 287 288 289 289 289 290 289 288 288 288 288 288 289 289 288 288 289 288 289 290 291 292 294 296 297 299 301 302 304 304 305 306
294 295 294 293 292 291 289 288 287 286 286 287 287 288 289 288 289 289 287 287 287 286 287 287 287 287 288 290 289 288 285 288 291 293 294 296 296 297 299 301 301 303 304
292 293 293 292 290 289 288 288 286 286 285 285 285 286 287 287 288 287 287 287 286 286 285 286 287 287 287 288 291 289 286 285 288 289 292 292 292 294 294 296 298 299 300
292 293 292 291 289 288 288 287 286 285 284 284 284 285 285 286 286 287 287 286 286 286 285 286 288 286 286 286 289 291 291 290 286 284 288 291 292 293 293 294 295 296 297
291 291 291 289 288 287 287 287 285 284 284 283 283 283 284 284 285 285 285 285 285 285 285 285 285 287 287 287 287 288 288 289 289 286 283 288 291 292 293 293 294 294 296
289 289 289 288 286 286 286 285 285 284 283 283 282 283 282 283 283 284 285 284 284 284 285 285 286 287 287 287 288 288 287 286 286 286 285 286 286 289 292 293 294 295 294
Wind_Speed
4 5 10 12 11 11 10 10 10 9 9 10 11 12 12 13 12 12 11 10 7 6 5 6 6 7 5 5 8 7 7 4 3 2 5 7 6 7 8 9 8 5 11
7 5 11 11 11 11 11 10 9 8 8 9 11 11 11 12 12 11 11 11 9 7 6 4 5 5 2 1 6 6 5 3 3 2 2 4 5 6 8 9 9 7 11
8 6 7 11 11 10 10 9 8 8 8 8 9 10 10 10 10 10 10 10 10 9 8 7 5 1 2 2 4 6 6 4 4 3 3 2 3 7 8 9 11 12 12
9 7 6 10 12 11 10 10 9 7 8 8 8 8 8 8 9 8 8 8 8 7 7 6 6 5 4 2 5 5 4 4 3 3 1 1 3 8 8 10 12 13 12
9 8 7 10 12 12 10 9 9 9 8 8 7 7 7 7 7 6 6 6 6 6 6 5 6 6 7 7 5 5 4 4 4 4 3 3 3 6 11 13 12 12 11
7 8 9 9 11 12 10 9 8 8 7 6 6 5 5 5 5 5 5 5 5 6 6 6 6 6 6 6 6 6 5 5 4 3 3 4 5 9 12 12 13 11 10
7 6 7 9 10 10 9 9 8 8 8 8 7 7 8 9 9 9 9 8 7 6 6 6 7 7 7 7 7 7 7 6 3 4 5 5 5 11 14 16 15 14 15
9 6 6 8 10 10 11 10 10 9 9 10 10 12 12 12 12 12 12 11 13 15 15 14 12 11 11 9 8 7 8 7 5 5 5 5 9 13 15 17 16 17 18
7 7 5 6 9 12 13 13 13 13 13 14 15 15 16 16 16 16 16 15 15 15 16 16 15 16 16 14 12 9 8 7 5 4 5 4 10 16 18 19 18 17 20
5 7 5 5 7 7 7 12 12 14 15 16 16 15 15 15 15 15 13 15 16 16 16 16 16 16 17 16 16 12 10 9 5 5 4 5 12 17 19 21 20 19 20
4 6 6 6 6 7 7 7 10 13 14 14 12 13 9 5 6 8 12 14 15 15 15 15 15 16 16 14 15 15 12 4 4 4 4 9 15 19 21 22 21 21 20
6 5 5 7 7 7 5 6 6 6 5 5 6 6 5 6 5 7 9 13 14 14 14 14 14 14 10 5 5 9 5 8 6 5 4 11 17 20 22 23 23 21 21
6 5 6 6 6 7 6 4 3 3 4 4 6 6 5 4 4 4 4 4 5 10 5 7 6 4 6 5 5 4 5 5 5 7 6 11 17 22 24 25 24 23 23
7 7 7 6 7 6 4 4 4 4 3 4 4 6 4 3 4 4 3 4 4 4 5 5 4 6 6 6 5 6 6 5 4 5 8 14 15 21 25 26 26 26 24
7 7 7 7 6 6 6 4 4 4 4 4 4 5 4 4 4 3 3 3 4 4 4 4 4 5 5 5 6 6 8 7 7 5 5 12 17 20 20 23 28 27 28
8 9 7 7 7 7 5 6 4 4 4 4 4 4 5 4 4 4 4 3 4 3 4 4 4 4 5 5 6 6 8 8 8 8 6 7 16 20 22 22 24 23 28
8 9 9 8 7 7 7 6 4 4 4 4 4 5 5 5 3 3 3 4 4 4 5 4 4 4 5 5 6 6 7 8 8 9 8 6 8 15 18 21 24 24 22
9 12 8 8 8 8 7 5 4 4 4 4 4 3 4 4 4 4 4 4 4 4 4 4 4 5 5 6 7 7 7 7 9 10 8 8 7 7 12 19 21 23 24
13 11 10 9 9 8 7 5 5 6 4 4 3 3 4 5 5 4 4 3 4 4 3 4 4 3 6 7 8 8 8 8 10 9 11 10 10 9 7 13 18 18 22
10 10 9 8 8 8 6 5 4 4 4 3 3 3 4 4 5 4 4 4 4 3 4 4 4 3 4 6 10 10 8 8 8 6 7 7 7 7 6 6 6 8 18
8 10 12 11 8 8 3 4 2 3 2 2 2 4 4 4 5 4 3 3 3 3 4 5 4 4 4 4 5 5 7 8 5 4 4 4 5 5 5 4 4 5 6
14 14 11 10 10 6 4 3 3 3 2 2 2 3 4 5 5 4 4 3 3 3 4 4 4 4 3 3 5 6 6 4 4 10 2 3 5 4 6 8 7 8 7
13 14 14 11 10 7 7 6 4 4 3 2 0 1 3 4 4 4 4 3 4 3 3 4 4 5 5 3 5 3 5 4 11 3 7 4 8 8 5 6 8 9 9
14 12 11 11 9 7 8 5 5 4 4 2 2 1 2 4 4 4 4 4 4 3 4 3 4 4 4 5 4 3 4 6 5 8 2 10 11 8 7 7 10 11 11
13 14 12 10 8 8 7 7 6 5 3 3 2 1 2 3 4 4 4 4 4 3 4 4 4 4 3 5 4 4 5 5 7 7 12 5 8 8 7 8 8 9 10
10 11 12 12 8 8 7 7 8 8 6 4 2 1 2 2 2 4 4 3 3 3 4 3 4 6 5 5 5 5 5 5 5 6 9 13 13 8 7 7 7 7 8
Wind_Direction
193 164 150 139 139 139 144 134 121 112 104 103 97 89 87 84 82 81 82 81 80 99 114 131 149 158 171 199 175 162 161 165 159 166 155 161 167 166 165 160 145 140 133
132 157 142 138 136 135 136 130 124 119 112 104 98 95 90 87 85 77 75 72 76 77 85 103 155 173 152 136 170 164 155 185 188 199 202 172 179 178 174 169 157 158 141
133 145 145 138 129 123 126 128 132 131 119 105 100 98 94 89 87 84 74 64 64 63 62 61 45 285 173 168 169 165 181 200 212 223 226 171 206 199 188 176 170 168 163
140 136 131 134 129 127 122 117 119 124 123 113 105 98 92 87 82 75 72 66 58 51 47 43 52 40 17 312 228 205 197 209 230 235 254 245 254 236 206 189 184 177 176
131 125 131 140 131 128 122 114 108 104 103 104 105 102 97 91 83 76 69 56 40 35 27 18 9 14 7 355 328 252 227 224 212 205 210 219 239 266 227 200 203 193 189
102 114 127 133 134 130 124 119 114 111 108 102 97 94 88 80 67 56 43 40 24 6 357 349 342 342 341 344 334 330 295 257 237 235 237 231 230 249 257 233 222 217 196
89 103 110 118 120 123 124 122 117 103 91 84 75 71 67 60 55 48 40 28 13 358 340 336 333 332 326 321 314 314 302 288 253 232 236 240 239 245 254 259 238 226 217
99 70 75 90 100 91 91 93 92 88 93 83 80 70 65 59 58 52 45 37 29 26 22 14 355 350 352 330 311 304 302 301 281 248 236 234 238 242 247 255 258 241 229
99 97 82 78 85 84 85 85 90 95 89 86 82 76 70 65 59 54 47 45 39 31 27 24 19 16 8 349 338 318 298 280 267 237 236 227 241 253 256 256 257 251 240
105 106 104 83 81 83 88 91 89 86 83 77 74 71 66 57 53 47 41 36 30 23 17 12 9 6 2 355 352 333 326 313 292 275 255 246 237 249 253 257 259 254 246
112 109 113 106 99 99 93 83 76 76 74 67 60 60 57 52 47 43 38 33 27 22 14 8 3 360 355 352 347 342 329 295 280 261 241 252 259 264 262 259 254 252 248
151 135 129 123 123 110 98 88 81 79 71 65 63 56 53 49 41 44 35 30 22 19 11 6 1 357 357 342 334 340 331 329 308 278 265 255 258 264 265 265 263 255 246
158 145 152 138 126 116 108 100 82 80 78 65 60 55 49 42 30 30 26 16 11 10 10 2 357 355 342 339 330 316 311 310 310 311 276 268 267 271 271 267 261 256 253
151 160 159 146 129 120 111 102 103 93 81 69 61 55 54 41 31 28 29 14 11 0 357 354 344 333 332 326 313 308 301 290 288 294 297 312 308 292 276 271 269 263 254
165 166 169 151 143 132 114 112 101 92 84 84 64 51 55 52 40 29 19 13 6 357 354 348 337 328 320 317 307 297 298 294 284 282 285 292 298 296 297 306 283 271 263
163 169 163 160 148 135 126 123 116 103 97 75 63 51 48 53 35 31 17 5 1 348 340 327 324 319 306 299 301 303 293 288 284 282 277 281 288 293 293 293 289 302 277
177 157 168 159 150 140 133 126 116 105 95 79 71 51 45 50 43 34 26 9 352 340 333 334 323 311 317 316 305 301 294 286 283 279 276 271 279 282 283 286 285 285 297
156 173 161 155 151 140 136 126 114 103 92 84 67 59 44 40 41 39 33 6 337 333 336 337 324 329 318 319 314 301 289 282 279 276 274 269 263 269 279 281 283 285 290
176 162 163 152 154 145 130 117 110 105 90 91 83 75 54 48 41 45 28 354 347 335 329 324 329 314 318 313 302 299 289 281 277 274 268 267 269 270 276 285 289 288 289
169 164 152 149 147 135 115 103 86 93 84 87 94 81 58 48 36 31 24 6 348 335 326 331 317 313 298 302 308 296 284 268 262 270 278 280 281 283 285 288 294 295 296
151 150 160 154 159 144 131 123 112 149 131 98 97 71 69 44 39 26 27 2 352 350 325 322 309 314 314 300 308 308 277 265 269 267 281 294 286 291 307 307 301 294 297
170 170 165 164 161 161 127 127 125 136 133 131 132 74 64 38 33 23 14 353 347 342 340 330 320 309 285 342 327 304 335 338 7 327 329 344 11 5 346 337 321 320 314
171 173 170 165 160 154 130 115 89 73 75 100 48 50 18 32 27 17 355 347 346 341 317 314 316 338 335 339 354 329 328 320 337 319 333 23 349 337 322 324 334 332 330
182 169 161 155 155 151 147 131 137 154 159 177 166 186 5 29 14 1 344 341 334 323 323 320 333 330 317 316 322 275 278 306 325 315 349 333 299 319 332 336 326 324 317
164 166 157 148 148 145 146 146 137 142 150 151 155 103 36 15 17 1 358 352 331 318 312 310 317 312 316 305 303 309 298 278 268 271 299 309 313 297 296 301 310 311 311
153 152 148 152 154 149 148 150 151 156 161 162 153 90 25 18 3 3 360 344 326 317 307 306 301 308 303 296 288 293 289 295 301 290 293 300 301 301 294 288 284 285 289